Location: Croydon
(51.3762°N, 0.0982°W)
Time: 03:55:37
(UTC+00:00)

Envisat - Pass Details

Date: 23 February 2019
Orbit: 764 x 766 km, 98.2° (Epoch: 21 March)

Event Time Altitude Azimuth Distance (km) Brightness Sun altitude
Rises 18:40:50 0° 171° (S) 3,222 6.2 -11.8°
Reaches altitude 10° 18:43:08 10° 174° (S) 2,300 5.4 -12.2°
Maximum altitude 18:48:11 68° 257° (WSW) 825 3.4 -12.9°
Drops below altitude 10° 18:53:17 10° 341° (NNW) 2,316 5.7 -13.7°
Sets 18:55:37 0° 344° (NNW) 3,247 6.5 -14.1°
